Snowfall_Accumulation
0.0 0.0 0.0 0.0 0.0 0.0 0.0 0.0 0.0 0.0 0.0 0.0 0.0 0.0 0.0 0.0 0.0 0.0 0.0 0.0 0.0 0.0 0.0 0.0 0.0 0.0 0.0 0.0 0.0 0.0 0.0 0.0 0.0 0.0 0.0 0.0 0.0 0.0 0.0 0.0 0.0 0.0 0.0 0.0
0.0 0.0 0.0 0.0 0.0 0.0 0.0 0.0 0.0 0.0 0.0 0.0 0.0 0.0 0.0 0.0 0.0 0.0 0.0 0.0 0.0 0.0 0.0 0.0 0.0 0.0 0.0 0.0 0.0 0.0 0.0 0.0 0.0 0.0 0.0 0.0 0.0 0.0 0.0 0.0 0.0 0.0 0.0 0.0
0.0 0.0 0.0 0.0 0.0 0.0 0.0 0.0 0.0 0.0 0.0 0.0 0.0 0.0 0.0 0.0 0.0 0.0 0.0 0.0 0.0 0.0 0.0 0.0 0.0 0.0 0.0 0.0 0.0 0.0 0.0 0.0 0.0 0.0 0.0 0.0 0.0 0.0 0.0 0.0 0.0 0.0 0.0 0.0
0.0 0.0 0.0 0.0 0.0 0.0 0.0 0.0 0.0 0.0 0.0 0.0 0.0 0.0 0.0 0.0 0.0 0.0 0.0 0.0 0.0 0.0 0.0 0.0 0.0 0.0 0.0 0.0 0.0 0.0 0.0 0.0 0.0 0.0 0.0 0.0 0.0 0.0 0.0 0.0 0.0 0.0 0.0 0.0
0.0 0.0 0.0 0.0 0.0 0.0 0.0 0.0 0.0 0.0 0.0 0.0 0.0 0.0 0.0 0.0 0.0 0.0 0.0 0.0 0.0 0.0 0.0 0.0 0.0 0.0 0.0 0.0 0.0 0.0 0.0 0.0 0.0 0.0 0.0 0.0 0.0 0.0 0.0 0.0 0.0 0.0 0.0 0.0
0.0 0.0 0.0 0.0 0.0 0.0 0.0 0.0 0.0 0.0 0.0 0.0 0.0 0.0 0.0 0.0 0.0 0.0 0.0 0.0 0.0 0.0 0.0 0.0 0.0 0.0 0.0 0.0 0.0 0.0 0.0 0.0 0.0 0.0 0.0 0.0 0.0 0.0 0.0 0.0 0.0 0.0 0.0 0.0
0.0 0.0 0.0 0.0 0.0 0.0 0.0 0.0 0.5 0.6 0.1 0.0 0.0 0.0 0.0 0.0 0.0 0.0 0.0 0.0 0.0 0.0 0.0 0.0 0.0 0.0 0.0 0.0 0.0 0.0 0.0 0.0 0.0 0.0 0.0 0.0 0.0 0.0 0.0 0.0 0.0 0.0 0.0 0.0
0.0 0.0 0.0 0.0 0.0 0.0 0.0 0.0 2.0 7.3 0.6 0.3 0.0 0.0 0.0 0.0 0.0 0.0 0.0 0.0 0.0 0.0 0.0 0.0 0.0 0.0 0.0 0.0 0.0 0.0 0.0 0.0 0.0 0.0 0.0 0.0 0.0 0.0 0.0 0.0 0.0 0.0 0.0 0.0
0.1 0.0 0.0 0.0 0.0 0.0 0.0 0.0 0.0 1.7 0.0 1.5 0.0 0.0 0.0 0.0 0.0 0.0 0.0 0.0 0.0 0.0 0.0 0.0 0.0 0.0 0.0 0.2 0.0 0.0 0.0 0.0 0.0 0.0 0.0 0.0 0.0 0.0 0.0 0.0 0.0 0.0 0.0 0.0
0.2 0.1 0.0 0.0 0.0 0.0 0.0 0.0 0.0 1.4 8.8 2.3 0.8 0.4 0.9 0.0 0.0 0.0 0.0 0.0 0.0 0.0 0.0 0.0 0.0 0.0 0.0 0.3 0.4 0.0 0.0 0.0 0.0 0.0 0.0 0.0 0.0 0.0 0.0 0.0 0.0 0.0 0.0 0.0
0.0 0.4 0.0 0.0 0.0 0.5 0.2 0.5 1.0 1.3 5.8 8.9 3.1 0.8 0.0 0.0 0.0 0.0 0.0 0.0 0.2 0.1 0.5 0.7 1.3 0.9 0.4 0.0 0.4 0.3 0.1 0.0 0.3 0.3 0.0 0.0 0.0 0.0 0.0 0.0 0.0 0.0 0.0 0.0
0.0 0.2 0.7 0.0 0.0 0.0 0.0 1.1 4.9 14.4 15.7 8.9 7.8 0.5 0.0 0.0 0.0 0.0 0.0 0.0 0.0 0.0 0.6 1.2 2.0 3.4 4.1 3.1 0.9 0.9 0.3 0.2 0.3 0.6 0.0 0.0 0.0 0.0 0.2 0.0 0.0 0.0 0.0 0.0
0.0 2.8 3.4 0.0 0.0 0.0 0.6 0.8 1.3 5.8 9.5 7.3 13.4 1.0 0.0 0.0 0.0 0.0 0.0 0.0 0.3 0.0 1.5 1.6 3.2 9.0 10.0 7.4 5.1 2.8 1.8 0.8 0.3 0.3 0.0 0.0 0.0 0.7 0.3 0.4 0.4 0.2 0.3 0.1
0.0 1.8 2.0 3.3 0.9 0.4 0.5 0.1 0.0 2.3 9.5 2.8 2.2 0.1 0.1 0.0 0.1 0.5 0.0 0.0 0.0 0.1 0.3 0.7 4.1 7.7 9.8 7.5 6.4 4.0 3.0 2.1 0.8 0.5 0.2 0.3 0.4 0.6 1.0 1.3 0.6 0.6 0.7 0.4
0.1 3.7 0.1 0.0 0.0 0.1 0.0 0.0 0.1 1.4 1.7 6.5 0.3 0.3 0.3 0.0 0.3 0.1 0.0 0.0 0.1 0.4 0.3 0.0 0.8 1.2 0.6 1.9 1.1 1.4 1.0 0.5 0.6 0.2 0.3 0.3 0.0 0.1 0.2 0.2 0.5 1.0 0.8 0.5
0.1 8.7 2.1 0.9 0.1 0.1 0.6 0.1 0.2 0.1 0.1 0.4 0.3 0.6 0.1 0.0 0.0 0.0 0.0 0.0 0.0 0.1 0.0 0.0 0.0 0.0 0.0 0.2 0.2 0.1 0.3 0.1 0.0 0.1 0.0 0.1 0.0 0.0 0.1 0.1 0.1 0.1 0.8 0.8
1.7 3.8 5.5 7.3 0.1 0.1 4.5 0.2 0.0 1.3 1.9 2.1 1.0 0.8 0.0 0.0 0.0 0.3 0.0 0.0 0.0 0.0 0.0 0.0 0.0 0.0 0.0 0.0 0.0 0.1 0.0 0.0 0.0 0.0 0.0 0.0 0.0 0.0 0.0 0.0 0.0 0.1 0.0 0.1
0.7 2.9 5.8 12.0 2.6 20.5 0.1 0.0 0.0 1.4 0.9 0.0 0.1 0.0 0.0 0.0 0.2 0.3 0.1 0.0 0.0 0.0 0.0 0.0 0.0 0.0 0.0 0.0 0.0 0.0 0.0 0.0 0.0 0.0 0.0 0.0 0.0 0.0 0.3 0.9 1.2 1.3 1.1 0.7
0.0 2.1 15.8 17.3 8.9 0.4 0.4 0.0 0.3 1.1 1.1 0.3 0.4 0.1 0.0 0.0 0.3 1.3 0.0 0.0 0.0 0.0 0.0 0.0 0.0 0.0 0.0 0.0 0.0 0.0 0.0 0.0 0.0 0.0 0.5 0.6 0.4 0.6 2.5 2.9 2.9 2.5 1.9 2.4
0.1 0.8 8.9 16.5 21.5 10.5 1.7 0.3 0.0 0.0 5.6 1.5 0.5 0.2 0.2 0.0 0.5 0.9 0.1 0.0 0.0 0.0 0.0 0.0 0.0 0.0 0.0 0.0 0.0 0.0 0.0 0.4 0.0 2.0 2.4 0.8 3.0 3.4 4.0 3.6 3.4 3.2 2.7 3.3
8.8 13.5 23.5 18.0 24.3 4.8 1.0 0.0 0.0 2.1 7.2 1.0 0.7 1.4 2.9 2.6 2.4 0.7 0.1 0.0 0.0 0.0 0.0 0.0 0.0 0.0 0.0 0.0 0.0 0.0 0.2 0.1 1.9 2.2 4.2 4.4 5.3 5.3 4.5 4.9 4.3 3.8 4.3 3.7
13.2 19.0 14.4 15.7 21.2 15.6 0.5 0.0 3.5 3.0 0.9 1.3 1.6 2.2 4.9 1.4 0.2 0.0 0.0 0.0 0.0 0.0 0.0 0.0 0.0 0.0 0.0 0.0 0.0 0.1 0.1 2.0 2.8 4.3 4.9 4.7 4.1 4.6 4.3 3.9 4.7 3.9 3.2 3.7
16.4 11.6 12.9 7.4 6.7 2.0 1.2 1.8 1.6 1.6 2.1 2.1 1.9 1.2 0.2 0.2 0.0 0.0 0.0 0.0 0.0 0.0 0.0 0.0 0.0 0.0 0.0 0.0 0.0 0.1 0.5 1.4 2.8 3.6 2.7 4.0 3.2 2.9 2.6 3.4 4.3 4.2 3.5 4.0
5.1 3.0 11.6 6.1 3.2 1.2 2.1 0.8 0.9 1.2 1.5 0.5 0.0 0.0 0.0 0.0 0.0 0.0 0.0 0.0 0.0 0.0 0.0 0.0 0.0 0.0 0.0 0.0 0.0 0.3 1.1 3.1 4.0 4.5 5.6 4.8 4.4 4.7 4.2 3.9 3.6 3.6 4.7 5.0
4.6 2.7 5.6 7.9 5.9 0.8 0.9 1.5 1.8 0.8 0.3 0.3 0.0 0.0 0.0 0.0 0.0 0.0 0.0 0.0 0.0 0.0 0.0 0.0 0.1 0.0 0.0 0.0 0.5 0.7 1.7 2.2 2.8 2.8 3.1 4.6 3.9 3.6 3.0 2.7 3.0 3.1 4.4 4.7
0.2 1.7 6.1 10.8 5.4 6.3 4.4 5.5 1.8 1.1 0.3 0.0 0.0 0.0 0.0 0.0 0.0 0.0 0.1 0.1 0.1 0.0 0.0 0.0 0.0 0.1 0.2 0.2 0.6 1.3 1.1 0.6 0.9 2.6 3.4 6.5 4.5 10.4 8.1 8.0 10.5 8.5 7.5 7.3